Regional Weather Roundup
Issued by NWS Raleigh/Durham, NC

Home | Current Version | Previous Version | Text Only | Print | Product List | Glossary On
Versions: 1 2 3 4 5 6 7 8 9 10 11 12 13 14 15 16 17 18 19 20 21 22 23 24 25 26 27 28 29 30 31 32 33 34 35 36 37 38 39 40 41 42 43 44 45 46 47 48 49 50
000
ASUS42 KRAH 292110
RWRRAH
NORTH CAROLINA WEATHER ROUNDUP
NATIONAL WEATHER SERVICE RALEIGH NC
500 PM EDT THU SEP 29 2016

NOTE: "FAIR" INDICATES FEW OR NO CLOUDS BELOW 12,000 FEET WITH NO
SIGNIFICANT WEATHER AND/OR OBSTRUCTIONS TO VISIBILITY.

NCZ001-053-055-056-065-067-292200-
WESTERN NORTH CAROLINA

CITY           SKY/WX    TMP DP  RH WIND       PRES   REMARKS
ASHEVILLE      PTSUNNY   76  48  37 S15       29.98R
JEFFERSON      LGT RAIN  64  59  84 SE6       30.02S
MORGANTON      SUNNY     78  62  57 SE7       29.97S
HICKORY        SUNNY     77  64  64 VRB7      29.93F
RUTHERFORDTON  CLOUDY    78  57  48 CALM      29.93S
MOUNT AIRY     RAIN      73  65  78 E3        30.00S
BOONE          HVY RAIN  60  58  91 CALM      30.04R VSB 1
$$

NCZ021-022-025-041-071-084-088-292200-
CENTRAL NORTH CAROLINA

CITY           SKY/WX    TMP DP  RH WIND       PRES   REMARKS
CHARLOTTE      MOSUNNY   82  66  58 E13       29.94R
GREENSBORO     PTSUNNY   80  68  66 S14       29.97R
WINSTON-SALEM  MOSUNNY   78  65  63 SE13      29.97F
RALEIGH-DURHAM CLOUDY    76  68  76 SE6       30.00S
FORT BRAGG     CLOUDY    72  69  88 SE6       29.98S
FAYETTEVILLE   LGT RAIN  72  69  90 E10       29.98S
BURLINGTON     CLOUDY    77  69  76 SE10      29.97S
LAURINBURG     CLOUDY    75  69  81 S9        29.98R
$$

NCZ011-015-027-028-043-044-047-080-103-292200-
NORTHEASTERN NORTH CAROLINA

CITY           SKY/WX    TMP DP  RH WIND       PRES   REMARKS
ROCKY MT-WILSO CLOUDY    76  70  82 VRB3      30.01R
GREENVILLE     CLOUDY    79  70  73 SE8       30.02R
WASHINGTON     CLOUDY    76  70  82 SE6       30.01S
ELIZABETH CITY CLOUDY    74  73  97 E5        30.02S
MANTEO         LGT RAIN  75  72  91 NE10      30.01F
CAPE HATTERAS  CLOUDY    80  74  81 N3        30.00F
$$

NCZ078-087-090-091-093-098-101-292200-
SOUTHEASTERN NORTH CAROLINA

CITY           SKY/WX    TMP DP  RH WIND       PRES   REMARKS
LUMBERTON      LGT RAIN  69  67  93 SE9       29.97F
GOLDSBORO      CLOUDY    79  75  86 SE10      29.99R
KINSTON        CLOUDY    79  72  78 SE9       30.00F
KENANSVILLE    CLOUDY    77  73  88 SE6       30.00S
NEW BERN       CLOUDY    78  70  76 E6        30.02R
CHERRY POINT   CLOUDY    78  69  73 E8        30.02R
BEAUFORT       CLOUDY    78  72  81 E5        30.00S
JACKSONVILLE   CLOUDY    83  71  67 SE9       29.99S
WILMINGTON     MOSUNNY   81  72  74 SE6       30.00R
$$




USA.gov is the U.S. government's official web portal to all federal, state and local government web resources and services.